Regional Weather Roundup
Issued by NWS

Home | Current Version | Previous Version | Text Only | Print | Product List | Glossary Off
Versions: 1 2 3 4 5 6 7 8 9 10 11 12 13 14 15 16 17 18 19 20 21 22 23 24 25 26 27 28 29 30 31 32 33 34 35 36 37 38 39 40 41 42 43 44 45 46 47 48 49 50

000
ASUS43 KDTX 281001
RWRMI
MICHIGAN HOURLY REGIONAL WEATHER ROUNDUP
NATIONAL WEATHER SERVICE DETROIT/PONTIAC MI
600 AM EDT THU APR 28 2016

NOTE: "FAIR" INDICATES FEW OR NO CLOUDS BELOW 12,000 FEET WITH NO
SIGNIFICANT WEATHER AND/OR OBSTRUCTION TO VISIBILITY.

MIZ047>049-052>055-059>063-066>070-074>076-081>083-281100-
SOUTHEAST LOWER MICHIGAN

CITY           SKY/WX    TMP DP  RH WIND       PRES   REMARKS
ADRIAN         CLOUDY    44  24  45 E14       29.92R
ALMA           CLOUDY    39  21  49 NE9G16    29.99R WCI  32
ANN ARBOR      CLOUDY    42  21  43 E8        29.93R
BAD AXE        CLOUDY    37  24  60 E6        30.03F WCI  32
CARO           CLOUDY    38  22  51 E9        29.99F WCI  32
DETROIT CITY   CLOUDY    42  26  53 NE13G18   29.96F
DETROIT        CLOUDY    43  24  47 NE9       29.95S
FLINT          CLOUDY    41  23  48 E10       29.98F
GROSSE ILE     CLOUDY    45  30  57 NE10      29.93S
HILLSDALE      RAIN      40  26  57 E14       29.89R WCI  33
HOWELL         MOCLDY    41  13  32 NE8       29.93F

CITY           SKY/WX    TMP DP  RH WIND       PRES   REMARKS
JACKSON        CLOUDY    44  32  62 E8        29.91S
LAMBERTVILLE   DRIZZLE   46  33  59 E8        29.92R
LANSING        CLOUDY    40  17  39 NE10      29.95S WCI  33
LAPEER         FAIR      38  24  55 E7        29.98F WCI  33
MASON          CLOUDY    41  17  37 NE8       29.93S
MONROE         CLOUDY    44  31  61 NE10      29.92S
PONTIAC        CLOUDY    40  23  50 NE12      29.95F WCI  33
PORT HOPE        N/A     39  32  76 NE7       30.03S WCI  34
PORT HURON     CLOUDY    39  32  75 NE9       29.99F WCI  33
TRI CITIES     CLOUDY    42  22  44 E13       30.00F
MIDLAND        FAIR      39  30  68 NE6       29.99F
TROY           CLOUDY    42  26  54 NE10G18   29.97F
SAGINAW HB     CLOUDY    37  27  65 NE8       29.99F WCI  31
$$
MIZ043>046-050>051-056>058-064>065-071>073-077>080-281100-
SOUTHWEST LOWER MICHIGAN

CITY           SKY/WX    TMP DP  RH WIND       PRES   REMARKS
BATTLE CREEK   CLOUDY    47  21  35 E9G18     29.91R
BENTON HARBOR  RAIN      47  36  65 E17G29    29.84R
BIG RAPIDS     CLOUDY    41  13  31 E12       29.98R
COLDWATER      LGT RAIN  41  34  75 E10       29.88S
FREMONT        DRIZZLE   42  17  35 E15G24    29.94S
HOLLAND        LGT RAIN  42  29  59 E13       29.91R
GRAND RAPIDS   LGT RAIN  43  19  38 E16       29.93R
IONIA          CLOUDY    39  15  36 NE14G20   29.95S WCI  31
KALAMAZOO      CLOUDY    48  23  37 E12G17    29.90R
LUDINGTON      CLOUDY    43  17  34 E12       29.96R
MARSHALL       LGT RAIN  42  26  54 E8        29.90R
MOUNT PLEASANT MOCLDY    38  29  69 NE7       30.00R WCI  33
MUSKEGON       LGT RAIN  42  22  44 E14       29.92S
$$
MIZ016>042-281100-
NORTHERN LOWER MICHIGAN

CITY           SKY/WX    TMP DP  RH WIND       PRES   REMARKS
ALPENA         CLOUDY    32  29  88 CALM      30.07R
BEAVER ISLAND  CLOUDY    36  31  83 E9        30.06S WCI  29
BELLAIRE       CLOUDY    36  24  62 CALM      30.05S
CADILLAC       CLOUDY    38  23  55 E7        29.98S WCI  32
CHARLEVOIX     CLOUDY    38  27  64 E9        30.07F WCI  31
FRANKFORT      CLOUDY    42  24  48 E8        29.99S
GAYLORD        CLOUDY    34  24  67 NE5       30.03S WCI  30
GRAYLING       MOCLDY    33  24  69 NE5       30.03F WCI  29
HARBOR SPRINGS CLOUDY    35  29  77 E6        30.06R WCI  30
HOUGHTON LAKE  MOCLDY    36  22  56 E8        30.02S WCI  30
MANISTEE       CLOUDY    43  18  36 E9        29.98S
OSCODA         MOCLDY    31  25  81 CALM      30.06R
PELLSTON       MOCLDY    38  26  62 E8        30.08R WCI  32
ROGERS CITY    CLOUDY    37  29  74 E7        30.09R WCI  31
TRAVERSE CITY  PTCLDY    40  24  53 NE6       30.02R
$$
MIZ007>008-015-281100-
EASTERN UPPER MICHIGAN

CITY           SKY/WX    TMP DP  RH WIND       PRES   REMARKS
KINROSS          N/A     36  25  64 E10       30.09R WCI  28
MACKINAC ISLAN CLOUDY    37  26  62 E9        30.07R WCI  31
NEWBERRY       CLOUDY    30  29  96 NE3       30.07S
S. S. MARIE    CLOUDY    36  20  52 E5        30.10R WCI  32
MUNISING         N/A     31  27  85 S5        30.08R WCI  26
$$
MIZ004>006-011>014-085-281100-
CENTRAL UPPER MICHIGAN

CITY           SKY/WX    TMP DP  RH WIND       PRES   REMARKS
MANISTIQUE     CLOUDY    32  26  80 CALM      30.06S
ESCANABA       CLOUDY    36  25  64 NE7       30.05F WCI  30
MENOMINEE      CLOUDY    37  27  65 E14       30.02S WCI  29
SAWYER-GWINN   CLOUDY    35  27  73 E9        30.07R WCI  27
$$
MIZ001>003-009>011-084-281100-
WESTERN UPPER MICHIGAN

CITY           SKY/WX    TMP DP  RH WIND       PRES   REMARKS
IRON MOUNTAIN  CLOUDY    36  17  46 NE7       30.02F WCI  30
HOUGHTON       CLOUDY    35  28  75 E8        30.08R WCI  29
COPPER HARBOR    N/A     38  30  73 SE6       30.11R WCI  33
IRONWOOD       CLOUDY    36  14  41 E6        30.01S WCI  31
$$

ABBREVIATIONS USED IN REMARKS
   TC - TEMPERATURE IN CELSIUS
  WCI - WIND CHILL INDEX
   HX - HEAT INDEX
  VSB - VISIBILITY





USA.gov is the U.S. government's official web portal to all federal, state and local government web resources and services.